Terminal Aerodrome Forecast
Issued by NWS Brownsville, TX

Current Version | Previous Version | Text Only | Print | Product List | Glossary On
Versions: 1 2 3 4 5 6 7 8 9 10 11 12 13 14 15
000
FTUS44 KBRO 250500
TAFBRO
TAF
KBRO 250521Z 2506/2606 13006KT P6SM SCT250
     FM251400 15008KT P6SM FEW030
     FM251700 17012G18KT P6SM SCT050 SCT250
     FM252200 14015G22KT P6SM FEW050
     FM260200 14009KT P6SM SKC=

USA.gov is the U.S. government's official web portal to all federal, state and local government web resources and services.